When you browse on this site, cookies collect data to enhance your experience and personalize the content and advertising you see.
Visit our Privacy Policy to learn more. By continuing to use the site, you agree to this use of cookies and data.

Meteo pe oră la Sanary-sur-Mer

Astăzi, 5 Iulie, Duminică

Timp Temperatura Precipitaţii Vânt Presiune Umiditate
00:00 +23°C° 0 mm 5 m/s 750 mmHg 44%
01:00 +22°C° 0 mm 5 m/s 749 mmHg 50%
02:00 +22°C° 0 mm 5 m/s 749 mmHg 56%
03:00 +21°C° 0 mm 5 m/s 749 mmHg 63%
04:00 +22°C° 0 mm 4 m/s 749 mmHg 61%
05:00 +23°C° 0 mm 4 m/s 749 mmHg 60%
06:00 +25°C° 0 mm 3 m/s 749 mmHg 57%
07:00 +27°C° 0 mm 3 m/s 749 mmHg 50%
08:00 +29°C° 0 mm 2 m/s 749 mmHg 43%
09:00 +31°C° 0 mm 2 m/s 749 mmHg 35%
10:00 +33°C° 0 mm 3 m/s 749 mmHg 33%
11:00 +34°C° 0 mm 3 m/s 749 mmHg 31%
12:00 +35°C° 0 mm 3 m/s 749 mmHg 29%
13:00 +34°C° 0 mm 3 m/s 749 mmHg 30%
14:00 +34°C° 0 mm 3 m/s 748 mmHg 32%
15:00 +32°C° 0 mm 2 m/s 748 mmHg 33%
16:00 +32°C° 0 mm 2 m/s 748 mmHg 36%
17:00 +31°C° 0 mm 2 m/s 748 mmHg 39%
18:00 +30°C° 0 mm 2 m/s 748 mmHg 42%
19:00 +28°C° 0 mm 2 m/s 748 mmHg 47%
20:00 +27°C° 0 mm 2 m/s 748 mmHg 52%
21:00 +26°C° 0 mm 2 m/s 748 mmHg 56%
22:00 +25°C° 0 mm 2 m/s 747 mmHg 57%
23:00 +25°C° 0 mm 2 m/s 747 mmHg 57%

Mâine, 6 Iulie, Luni

Timp Temperatura Precipitaţii Vânt Presiune Umiditate
00:00 +25°C° 0 mm 2 m/s 747 mmHg 58%
01:00 +24°C° 0 mm 3 m/s 747 mmHg 59%
02:00 +24°C° 0 mm 3 m/s 747 mmHg 61%
03:00 +24°C° 0 mm 3 m/s 746 mmHg 62%
04:00 +24°C° 0 mm 3 m/s 746 mmHg 62%
05:00 +25°C° 0 mm 3 m/s 746 mmHg 63%
06:00 +26°C° 0 mm 4 m/s 746 mmHg 63%
07:00 +28°C° 0 mm 4 m/s 746 mmHg 55%
08:00 +29°C° 0 mm 5 m/s 746 mmHg 48%
09:00 +32°C° 0 mm 6 m/s 746 mmHg 40%
10:00 +33°C° 0 mm 7 m/s 746 mmHg 37%
11:00 +34°C° 0 mm 8 m/s 746 mmHg 34%
12:00 +35°C° 0 mm 9 m/s 746 mmHg 30%
13:00 +36°C° 0 mm 10 m/s 745 mmHg 29%
14:00 +36°C° 0 mm 11 m/s 745 mmHg 27%
15:00 +36°C° 0 mm 12 m/s 745 mmHg 26%
16:00 +33°C° 0 mm 12 m/s 744 mmHg 27%
17:00 +32°C° 0 mm 12 m/s 744 mmHg 28%
18:00 +29°C° 0 mm 13 m/s 744 mmHg 29%
19:00 +27°C° 0 mm 13 m/s 744 mmHg 33%
20:00 +26°C° 0 mm 13 m/s 744 mmHg 36%
21:00 +23°C° 0 mm 13 m/s 744 mmHg 40%
22:00 +22°C° 0 mm 13 m/s 744 mmHg 43%
23:00 +21°C° 0 mm 12 m/s 744 mmHg 45%

Poimâine, 7 Iulie, Marţi

Timp Temperatura Precipitaţii Vânt Presiune Umiditate
00:00 +19°C° 0 mm 11 m/s 744 mmHg 48%
01:00 +18°C° 0 mm 10 m/s 744 mmHg 50%
02:00 +18°C° 0 mm 9 m/s 744 mmHg 52%
03:00 +17°C° 0 mm 8 m/s 743 mmHg 53%
04:00 +18°C° 0 mm 7 m/s 744 mmHg 52%
05:00 +20°C° 0 mm 7 m/s 744 mmHg 50%
06:00 +20°C° 0 mm 6 m/s 744 mmHg 49%
07:00 +23°C° 0 mm 5 m/s 745 mmHg 44%
08:00 +27°C° 0 mm 5 m/s 746 mmHg 39%
09:00 +30°C° 0 mm 4 m/s 746 mmHg 34%
10:00 +30°C° 0 mm 4 m/s 746 mmHg 36%
11:00 +30°C° 0 mm 3 m/s 747 mmHg 38%
12:00 +30°C° 0 mm 3 m/s 747 mmHg 40%
13:00 +30°C° 0 mm 3 m/s 747 mmHg 43%
14:00 +29°C° 0 mm 3 m/s 747 mmHg 46%
15:00 +29°C° 0 mm 3 m/s 748 mmHg 49%
16:00 +28°C° 0 mm 3 m/s 748 mmHg 52%
17:00 +27°C° 0 mm 2 m/s 748 mmHg 55%
18:00 +27°C° 0 mm 1 m/s 748 mmHg 58%
19:00 +25°C° 0 mm 1 m/s 748 mmHg 62%
20:00 +24°C° 0 mm 1 m/s 748 mmHg 67%
21:00 +23°C° 0 mm 1 m/s 749 mmHg 72%
22:00 +23°C° 0 mm 1 m/s 749 mmHg 73%
23:00 +22°C° 0 mm 1 m/s 749 mmHg 74%

8 Iulie, Miercuri

Timp Temperatura Precipitaţii Vânt Presiune Umiditate
00:00 +22°C° 0 mm 1 m/s 749 mmHg 75%
01:00 +22°C° 0 mm 1 m/s 749 mmHg 75%
02:00 +21°C° 0 mm 1 m/s 749 mmHg 75%
03:00 +21°C° 0 mm 1 m/s 749 mmHg 75%
04:00 +22°C° 0 mm 1 m/s 749 mmHg 71%
05:00 +23°C° 0 mm 1 m/s 749 mmHg 67%
06:00 +24°C° 0 mm 1 m/s 749 mmHg 63%
07:00 +25°C° 0 mm 1 m/s 749 mmHg 57%
08:00 +27°C° 0 mm 1 m/s 750 mmHg 50%
09:00 +28°C° 0 mm 2 m/s 750 mmHg 44%
10:00 +29°C° 0 mm 2 m/s 750 mmHg 43%
11:00 +29°C° 0 mm 2 m/s 750 mmHg 43%
12:00 +29°C° 0 mm 3 m/s 750 mmHg 42%
13:00 +29°C° 0 mm 3 m/s 749 mmHg 42%
14:00 +29°C° 0 mm 3 m/s 749 mmHg 43%
15:00 +29°C° 0 mm 3 m/s 749 mmHg 43%
16:00 +28°C° 0 mm 3 m/s 749 mmHg 46%
17:00 +27°C° 0 mm 3 m/s 749 mmHg 48%
18:00 +26°C° 0 mm 3 m/s 749 mmHg 51%
19:00 +25°C° 0 mm 3 m/s 749 mmHg 54%
20:00 +24°C° 0 mm 3 m/s 749 mmHg 57%
21:00 +22°C° 0 mm 3 m/s 749 mmHg 60%
22:00 +22°C° 0 mm 3 m/s 749 mmHg 60%
23:00 +21°C° 0 mm 3 m/s 749 mmHg 60%

9 Iulie, Joi

Timp Temperatura Precipitaţii Vânt Presiune Umiditate
00:00 +21°C° 0 mm 2 m/s 749 mmHg 59%
01:00 +21°C° 0 mm 2 m/s 749 mmHg 60%
02:00 +20°C° 0 mm 2 m/s 749 mmHg 61%
03:00 +20°C° 0 mm 2 m/s 749 mmHg 62%
04:00 +22°C° 0 mm 1 m/s 749 mmHg 58%
05:00 +23°C° 0 mm 1 m/s 749 mmHg 55%
06:00 +24°C° 0 mm 1 m/s 749 mmHg 52%
07:00 +26°C° 0 mm 1 m/s 749 mmHg 46%
08:00 +28°C° 0 mm 1 m/s 749 mmHg 41%
09:00 +30°C° 0 mm 2 m/s 750 mmHg 36%
10:00 +30°C° 0 mm 2 m/s 750 mmHg 35%
11:00 +31°C° 0 mm 2 m/s 749 mmHg 35%
12:00 +31°C° 0 mm 3 m/s 749 mmHg 34%
13:00 +31°C° 0 mm 3 m/s 749 mmHg 34%
14:00 +31°C° 0 mm 3 m/s 749 mmHg 34%
15:00 +31°C° 0 mm 3 m/s 749 mmHg 34%
16:00 +30°C° 0 mm 3 m/s 749 mmHg 36%
17:00 +29°C° 0 mm 2 m/s 748 mmHg 38%
18:00 +28°C° 0 mm 2 m/s 748 mmHg 41%
19:00 +27°C° 0 mm 1 m/s 748 mmHg 45%
20:00 +26°C° 0 mm 1 m/s 748 mmHg 49%
21:00 +24°C° 0 mm 1 m/s 748 mmHg 53%
22:00 +24°C° 0 mm 1 m/s 748 mmHg 53%
23:00 +24°C° 0 mm 1 m/s 748 mmHg 54%

10 Iulie, Vineri

Timp Temperatura Precipitaţii Vânt Presiune Umiditate
00:00 +23°C° 0 mm 1 m/s 748 mmHg 55%
01:00 +23°C° 0 mm 1 m/s 748 mmHg 56%
02:00 +23°C° 0 mm 1 m/s 748 mmHg 58%
03:00 +22°C° 0 mm 1 m/s 748 mmHg 59%
04:00 +23°C° 0 mm 1 m/s 748 mmHg 57%
05:00 +24°C° 0 mm 1 m/s 748 mmHg 55%
06:00 +25°C° 0 mm 1 m/s 748 mmHg 52%
07:00 +27°C° 0 mm 1 m/s 748 mmHg 48%
08:00 +28°C° 0 mm 2 m/s 748 mmHg 44%
09:00 +30°C° 0 mm 2 m/s 748 mmHg 40%
10:00 +31°C° 0 mm 2 m/s 748 mmHg 38%
11:00 +31°C° 0 mm 2 m/s 748 mmHg 37%
12:00 +32°C° 0 mm 2 m/s 748 mmHg 35%
13:00 +33°C° 0 mm 3 m/s 748 mmHg 37%
14:00 +33°C° 0 mm 4 m/s 748 mmHg 39%
15:00 +32°C° 0 mm 4 m/s 748 mmHg 40%
16:00 +30°C° 0 mm 4 m/s 747 mmHg 44%
17:00 +29°C° 0 mm 3 m/s 747 mmHg 48%
18:00 +28°C° 0 mm 3 m/s 747 mmHg 52%
19:00 +27°C° 0 mm 3 m/s 747 mmHg 56%
20:00 +26°C° 0 mm 3 m/s 748 mmHg 60%
21:00 +24°C° 0 mm 3 m/s 748 mmHg 63%
22:00 +24°C° 0 mm 3 m/s 748 mmHg 64%
23:00 +24°C° 0 mm 2 m/s 748 mmHg 64%
Arată mai mult